This is the latest recevied weather packets stored in our database for station/object N2PUI. If no packets are shown the sender has not sent any weather packets the latest 10 day(s).
| Time | Temp. | Humidity | Pressure | Rain* | Wind** | Luminosity | Snow |
|---|---|---|---|---|---|---|---|
| 1778098479 | 8.33° C | 95% | 1008.5 hPa | 0 mm | - | 54 W/m² | - |
| 1778098175 | 8.33° C | 95% | 1008.5 hPa | 1.78 mm | - | 47 W/m² | - |
| 1778097872 | 8.33° C | 95% | 1008.7 hPa | 1.78 mm | - | 95 W/m² | - |
| 1778097568 | 8.33° C | 95% | 1008.5 hPa | 0 mm | - | 65 W/m² | - |
| 1778097265 | 8.33° C | 95% | 1008.4 hPa | 0 mm | - | 98 W/m² | - |
| 1778096962 | 8.89° C | 95% | 1008.7 hPa | 1.27 mm | - | 43 W/m² | - |
| 1778096659 | 8.89° C | 95% | 1008.6 hPa | 1.27 mm | - | 64 W/m² | - |
| 1778096356 | 8.89° C | 95% | 1008.7 hPa | 0 mm | - | 50 W/m² | - |
| 1778096053 | 8.89° C | 95% | 1008.8 hPa | 1.78 mm | - | 66 W/m² | - |
| 1778095749 | 8.89° C | 95% | 1008.5 hPa | 1.78 mm | - | 58 W/m² | - |
| 1778095446 | 8.33° C | 95% | 1008.2 hPa | 1.27 mm | - | 81 W/m² | - |
| 1778095143 | 8.33° C | 95% | 1008.3 hPa | 1.27 mm | - | 85 W/m² | - |
| 1778094839 | 8.89° C | 95% | 1008.4 hPa | 1.78 mm | - | 68 W/m² | - |
| 1778094536 | 8.33° C | 95% | 1008.3 hPa | 1.78 mm | - | 59 W/m² | - |
| 1778094233 | 8.89° C | 95% | 1008.1 hPa | 0 mm | - | 78 W/m² | - |
| 1778093930 | 8.89° C | 95% | 1008 hPa | 0 mm | - | 71 W/m² | - |
| 1778093627 | 8.89° C | 95% | 1007.9 hPa | 0 mm | - | 75 W/m² | - |
| 1778093324 | 8.89° C | 95% | 1008 hPa | 0 mm | - | 96 W/m² | - |
| 1778093021 | 8.89° C | 95% | 1008 hPa | 0 mm | - | 116 W/m² | - |
| 1778092718 | 8.33° C | 95% | 1007.9 hPa | 0 mm | - | 118 W/m² | - |
| 1778092413 | 8.33° C | 95% | 1007.8 hPa | 0 mm | - | 117 W/m² | - |
| 1778092111 | 8.33° C | 95% | 1007.9 hPa | 0 mm | - | 105 W/m² | - |
| 1778091808 | 8.33° C | 95% | 1007.7 hPa | 0 mm | - | 117 W/m² | - |
| 1778091505 | 8.33° C | 95% | 1007.8 hPa | 0 mm | - | 111 W/m² | - |
| 1778091203 | 8.33° C | 95% | 1007.7 hPa | 0 mm | - | 106 W/m² | - |
* Rain latest hour (hover to see other rain measurements)
** Current wind speed in m/s (hover to see current wind gust speed)